Wind_Speed
39 38 38 36 34 34 33 33 33 33 33 34 36 37 38 38 37 38 40 42 41 41 40 39 39 39 38 37 36 35 34 33 33 33 34 36 37 36 35 35 35 34
39 39 38 37 35 35 35 34 34 33 33 35 36 36 37 37 37 37 39 41 41 41 41 40 39 40 39 38 37 36 35 34 34 34 34 35 36 36 36 35 35 35
40 40 40 39 39 39 39 38 37 35 34 35 36 37 37 37 37 37 38 40 41 41 41 40 40 40 40 40 39 38 37 36 36 35 34 35 35 35 35 35 35 35
42 43 43 43 44 43 42 41 40 38 37 37 38 39 39 38 38 38 38 39 41 41 41 41 40 40 40 40 40 39 38 38 37 35 35 36 36 36 36 35 34 34
45 46 45 45 45 43 42 41 41 40 40 39 38 39 40 40 39 39 39 40 41 41 41 41 41 41 41 41 40 40 39 39 38 36 36 37 37 37 36 35 34 34
45 45 45 44 44 43 42 42 42 42 41 39 38 38 40 41 40 40 41 41 41 41 41 42 42 41 41 41 41 41 40 40 40 38 37 37 37 37 36 35 34 34
44 45 45 45 44 42 41 41 43 43 39 37 38 39 40 41 41 42 43 43 42 42 42 42 42 42 41 41 41 41 41 41 40 39 38 38 37 37 36 35 35 34
45 46 46 45 43 41 39 39 41 39 35 34 37 39 40 41 42 43 43 43 43 44 44 43 43 43 42 41 41 41 41 41 40 40 39 39 37 37 37 36 35 35
43 44 44 44 43 41 39 38 37 36 35 36 38 39 40 41 43 43 42 42 42 43 44 44 44 44 43 43 43 42 41 41 41 41 40 40 39 38 38 37 35 35
40 41 41 41 42 41 41 39 36 34 36 38 40 40 40 41 41 41 41 41 42 42 43 44 45 45 45 44 44 43 42 42 41 41 41 40 40 40 39 37 36 36
38 38 38 39 40 41 41 41 37 34 34 38 40 39 39 40 40 40 41 41 43 45 45 45 45 46 46 46 44 43 43 42 41 40 41 41 41 41 39 38 38 38
36 36 37 38 39 40 41 40 38 35 33 36 38 38 38 39 39 40 41 43 44 46 46 46 45 45 46 46 45 43 42 42 41 40 40 40 40 40 39 39 39 39
35 36 37 37 38 39 40 39 37 35 34 35 36 37 37 39 40 41 43 44 44 45 45 46 45 44 45 45 44 43 42 41 41 40 39 39 39 39 39 38 39 39
37 37 37 37 37 38 38 39 37 36 36 36 36 37 38 40 41 42 43 43 43 44 45 45 44 43 44 44 43 43 42 41 41 40 39 38 38 38 38 37 38 38
38 37 37 38 37 37 38 38 38 37 37 37 37 38 40 41 42 42 42 41 41 43 44 44 44 45 46 45 44 42 42 41 40 40 39 38 37 36 36 36 37 37
36 35 36 38 38 39 39 38 37 37 37 37 38 38 39 40 41 41 41 42 42 43 43 43 45 47 47 47 45 43 42 40 39 39 39 38 37 35 35 36 36 37
36 36 37 38 39 40 40 39 39 38 38 38 38 38 39 39 40 41 42 43 43 43 43 44 46 48 47 46 46 45 43 41 40 38 38 37 37 36 36 36 36 36
36 37 37 38 40 41 41 40 39 38 39 40 39 39 39 39 40 42 43 44 43 43 44 45 47 49 47 46 47 47 45 43 40 39 38 37 37 37 37 36 35 35
36 37 38 39 40 41 41 41 40 39 40 40 41 41 40 40 41 42 43 43 42 42 44 46 48 47 46 47 47 48 47 44 41 39 39 38 38 38 37 36 35 35
32 33 34 38 41 42 41 39 40 41 41 41 41 40 39 39 41 42 42 42 42 43 45 46 46 45 45 47 48 47 47 46 42 40 39 39 39 39 38 37 37 36
27 26 24 26 30 35 39 40 40 40 41 41 40 40 40 41 42 42 42 42 43 44 44 43 44 44 44 46 47 47 47 46 43 40 40 40 40 40 40 39 39 38
26 29 29 28 26 25 27 33 37 39 40 40 39 39 40 41 40 41 41 41 43 43 41 42 44 44 43 45 45 45 45 46 44 41 39 39 39 39 40 40 40 40
23 29 34 36 33 30 29 29 31 35 38 39 38 38 38 39 40 41 42 42 42 41 41 42 43 42 42 44 44 43 44 45 44 40 38 38 39 39 39 40 40 41
19 24 29 32 33 34 33 32 32 33 36 37 38 38 38 39 40 40 41 42 42 42 42 43 43 42 41 41 42 43 44 45 44 40 36 36 37 37 38 39 40 41
19 20 25 29 30 32 35 35 34 34 35 36 38 39 39 39 39 38 38 39 41 42 44 44 42 41 39 40 40 41 43 45 43 39 36 36 35 34 35 37 39 41
21 20 23 27 30 34 37 36 35 34 34 35 36 38 38 37 37 37 36 37 39 40 42 44 43 41 40 40 40 41 43 44 42 40 38 36 34 33 33 35 37 39
Wind_Direction
201 201 202 202 201 202 202 200 200 202 203 203 205 208 212 215 216 215 214 215 216 217 218 218 220 223 225 225 226 227 229 229 230 232 230 228 227 227 226 226 226 225
202 202 202 202 201 202 203 203 202 203 206 207 208 210 213 216 217 218 218 217 217 218 218 218 219 222 224 225 225 226 228 229 231 232 231 230 229 228 228 229 228 227
202 203 203 202 202 203 204 204 204 205 208 210 210 211 214 217 218 220 220 219 218 219 219 219 219 221 223 225 225 226 229 230 230 232 232 232 232 231 232 232 231 229
203 205 205 205 205 205 205 203 201 202 205 208 211 213 215 217 219 220 221 221 220 219 219 219 219 219 221 223 225 227 229 230 230 231 232 233 233 233 235 235 233 232
205 206 207 207 206 207 207 203 199 199 202 204 208 211 214 217 219 220 221 221 221 220 219 218 218 218 219 220 222 225 227 229 230 230 231 232 232 233 235 235 234 232
205 207 208 207 207 207 206 205 201 198 199 202 206 209 213 216 217 219 220 220 220 220 219 218 217 217 217 217 219 222 225 226 228 229 230 231 231 232 232 232 231 231
206 208 209 209 209 208 208 208 203 198 200 203 205 208 211 214 216 218 219 219 219 219 218 217 216 216 216 215 217 219 222 224 225 227 228 230 231 230 230 230 230 230
207 209 210 211 211 210 211 213 209 204 205 205 204 207 210 213 216 218 219 219 219 219 219 217 216 216 215 214 215 217 219 220 222 224 227 228 228 229 229 228 229 231
208 210 212 213 214 215 216 219 217 212 210 208 207 208 210 213 216 217 217 218 219 220 220 218 216 216 216 216 216 216 217 219 221 222 225 226 226 227 227 226 226 228
210 212 214 214 216 218 220 221 221 216 211 210 209 208 209 212 215 216 216 217 218 220 221 220 218 216 216 217 217 217 217 219 220 222 223 225 225 226 226 224 223 225
212 213 215 217 218 220 222 223 222 220 215 211 208 207 209 211 214 215 216 216 217 219 221 221 219 216 216 217 217 217 218 220 221 222 223 225 226 226 226 224 223 225
213 214 216 219 219 221 222 222 223 223 220 214 209 207 209 211 212 214 215 216 218 219 220 221 221 218 216 217 217 217 218 220 222 223 224 225 226 226 226 225 224 225
214 216 218 219 221 222 222 223 223 222 221 217 213 210 209 210 212 214 216 217 218 218 219 221 221 219 218 218 217 217 218 220 221 223 224 226 227 227 227 226 226 226
217 217 218 220 222 223 223 223 223 222 221 219 216 212 211 212 213 214 216 218 218 218 219 220 220 220 219 218 217 217 217 219 221 222 224 225 227 228 227 226 227 227
216 217 217 218 220 223 224 224 223 222 220 218 217 214 213 213 214 215 216 217 218 218 219 220 220 220 219 218 216 215 216 217 220 222 223 225 226 227 227 227 227 227
215 215 215 216 217 220 222 222 222 221 219 218 217 216 214 214 214 215 216 217 217 218 219 219 220 221 221 219 216 214 214 216 218 220 222 223 225 226 227 227 227 227
213 213 213 214 215 217 220 220 219 219 219 219 218 216 215 214 213 214 216 217 218 217 218 219 220 222 222 219 217 216 215 215 217 219 221 222 223 224 226 227 227 227
212 212 212 212 213 215 217 218 218 218 218 218 218 217 215 214 213 214 216 217 218 218 218 220 222 223 222 220 219 218 216 215 216 218 219 221 222 223 225 226 226 226
216 212 211 212 214 215 217 217 216 217 218 218 218 217 216 214 214 215 216 217 217 218 220 222 224 224 223 221 220 219 217 215 215 217 218 220 221 222 224 225 224 224
224 219 216 215 214 214 216 216 215 216 217 217 218 217 215 215 215 216 217 218 217 218 221 223 225 225 223 222 221 219 217 215 214 216 218 220 221 222 222 222 223 222
231 234 237 236 230 221 216 214 214 216 217 216 217 216 215 216 216 216 218 218 218 220 221 224 226 226 224 224 222 219 217 215 214 215 218 220 221 221 221 221 221 222
230 232 237 246 255 255 240 224 217 216 217 216 217 216 216 217 217 217 218 219 219 220 222 225 228 227 226 225 223 220 216 214 214 215 216 218 220 220 220 220 221 221
240 232 228 230 236 248 257 249 233 223 219 216 216 217 216 217 217 217 218 219 219 219 220 224 228 228 227 226 223 219 215 212 212 214 216 217 218 219 218 218 219 221
256 242 233 228 224 226 235 242 242 237 229 220 216 217 218 218 218 219 219 218 218 219 220 224 228 228 227 226 223 219 215 212 211 212 215 217 218 218 218 217 219 222
261 251 240 234 229 225 225 227 230 235 237 231 222 217 218 219 219 219 221 220 220 221 222 224 227 229 228 225 223 219 215 212 210 210 214 216 216 216 216 216 218 222
257 253 245 237 232 230 230 227 223 225 233 238 233 223 218 219 219 219 221 223 222 222 223 224 226 228 229 226 223 220 215 211 208 209 212 213 212 212 213 214 217 220
Height
751 754 757 760 763 766 769 771 772 774 777 779 781 784 787 790 793 795 796 796 797 798 798 799 801 803 805 806 806 807 808 809 810 812 813 813 814 815 816 817 817 818
748 751 754 757 760 762 765 767 768 770 773 776 778 781 785 787 790 792 794 795 795 796 797 798 799 800 802 803 804 805 806 807 808 809 810 811 812 812 813 814 815 815
744 747 750 752 755 757 759 761 763 765 768 772 775 778 781 784 787 789 791 793 793 794 795 796 797 798 799 801 802 803 803 804 805 807 808 808 809 810 810 811 812 813
740 743 746 748 749 752 755 756 756 758 762 766 770 773 777 781 784 786 789 790 791 791 792 793 794 795 797 798 800 800 801 802 803 805 806 806 807 808 808 809 809 810
735 738 741 744 745 748 752 752 751 752 755 759 763 768 773 777 780 783 785 787 788 788 789 790 792 793 794 796 797 797 798 799 801 802 803 803 804 805 806 807 807 808
732 735 737 740 742 744 747 748 746 746 749 753 757 762 767 772 775 778 781 783 784 786 786 787 788 790 791 792 794 794 795 796 798 800 800 800 802 803 804 804 805 805
729 731 734 736 738 740 742 745 744 742 743 747 751 756 762 767 771 773 776 779 781 782 782 783 785 786 787 789 790 791 792 794 795 797 797 798 799 800 801 802 802 802
725 727 730 732 735 736 738 743 743 738 737 742 747 752 756 761 765 768 772 775 778 779 779 779 781 782 784 785 786 787 789 790 792 793 794 795 796 797 797 798 799 800
722 724 727 729 731 733 735 739 739 734 733 739 744 748 752 756 760 764 768 771 774 777 777 777 777 778 780 781 782 783 785 786 788 789 790 791 792 793 794 796 796 797
720 721 724 726 728 729 731 733 734 733 732 735 740 744 747 751 756 760 764 767 770 773 775 775 774 774 775 776 777 779 781 782 784 785 786 787 789 790 791 792 793 794
717 719 721 723 724 726 727 728 731 732 732 733 736 739 743 747 752 756 760 762 764 767 770 771 771 770 770 771 772 774 777 779 780 782 783 784 785 786 788 789 790 791
714 716 718 720 721 723 724 726 728 731 732 733 733 735 739 744 748 751 754 757 759 762 765 767 768 768 767 766 768 770 773 775 777 778 779 781 782 783 784 786 787 787
711 713 715 717 718 720 722 723 725 728 730 731 732 733 736 740 744 747 750 752 755 758 761 763 765 765 764 764 764 766 768 771 773 774 776 777 778 780 781 782 783 784
707 709 712 714 716 718 719 721 722 725 727 729 730 731 733 737 739 742 745 748 751 754 757 759 762 762 761 760 761 762 764 767 769 770 772 773 775 776 778 779 780 781
703 706 708 711 713 715 716 717 719 722 723 725 728 729 730 733 735 738 742 745 747 750 753 755 757 757 755 755 756 758 760 762 765 767 768 770 772 773 775 776 777 778
700 702 704 707 709 710 712 714 716 718 720 722 724 725 727 729 732 735 738 740 742 745 748 750 751 750 750 750 752 754 756 759 761 763 765 767 768 770 771 772 773 774
696 698 700 702 704 705 707 710 712 714 717 718 720 721 723 725 728 731 733 735 737 740 742 744 744 744 745 747 748 750 753 755 757 760 762 763 765 766 767 768 769 771
692 694 695 697 698 700 702 705 708 710 712 714 715 717 719 721 723 725 727 729 732 734 737 738 738 738 741 743 744 746 748 751 754 756 758 759 761 762 763 765 766 768
689 689 690 692 693 695 697 699 702 705 706 708 710 712 714 716 718 720 722 724 727 729 731 731 732 734 737 739 740 742 744 748 750 752 754 755 757 758 760 762 763 765
687 687 687 687 688 690 692 694 697 698 700 703 705 707 710 711 713 715 717 719 722 724 725 726 727 729 732 734 736 738 741 744 747 748 750 751 752 754 756 758 760 762
686 687 688 689 689 689 689 689 691 693 695 698 700 702 704 705 707 709 711 714 716 718 720 722 723 725 727 729 731 734 737 741 743 745 746 747 748 749 751 753 756 758
682 684 686 688 690 692 692 690 689 690 692 694 696 697 699 701 703 705 707 709 711 714 716 717 718 720 723 725 727 730 734 737 739 741 742 743 744 745 747 749 751 754
677 678 679 681 684 689 693 694 692 690 689 690 692 694 695 697 698 700 701 703 706 709 711 712 713 715 718 720 723 727 730 733 735 737 738 739 740 741 743 745 747 749
673 673 675 677 679 681 685 689 692 693 691 689 688 690 691 692 694 695 696 697 700 703 705 706 708 710 713 716 718 721 725 727 730 733 734 735 736 738 740 741 743 745
671 671 671 673 676 677 678 680 684 689 692 691 687 685 686 688 690 691 693 693 695 697 699 702 704 706 709 711 713 716 719 722 725 728 729 730 732 735 737 738 740 741
668 669 669 670 671 672 674 675 677 680 686 689 688 685 682 684 686 687 688 690 691 692 694 697 699 702 704 706 708 710 713 716 719 721 722 724 728 731 733 734 736 737